Location: Nitra
(0.0000°N, 18.0833°E)
Time: 06:01:13
(UTC+01:00)

OAO 3 Rocket - Pass Details

Date: 24 January 2021
Orbit: 629 x 682 km, 35.0° (Epoch: 04 March)

Event Time Altitude Azimuth Distance (km) Brightness Sun altitude
Rises 18:25:28 0° 243° (WSW) 3,007 9.0 -6.0°
Reaches altitude 10° 18:27:54 10° 249° (WSW) 2,098 7.6 -6.6°
Maximum altitude 18:32:38 48° 323° (NW) 883 4.0 -7.7°
Drops below altitude 10° 18:37:24 10° 37° (NE) 2,106 5.3 -8.9°
Enters shadow 18:38:06 - 39° (NE) 2,363 5.5 -9.0°
